Weather History for KSFZ - May, 2012

Change the Weather History Date:

Wednesday, May 30, 2012

  Actual Average Record
Temperature  
Mean Temperature 66 °F -  
Max Temperature 75 °F 66 °F 84 °F (1999)
Min Temperature 57 °F 48 °F 39 °F (2014)
Cooling Degree Days 1    
Growing Degree Days 16 (Base 50)    
Moisture  
Dew Point 62 °F    
Average Humidity 82    
Maximum Humidity 100    
Minimum Humidity 61    
Precipitation  
Precipitation 0.00 in - - ()
Sea Level Pressure  
Sea Level Pressure 29.76 in    
Wind  
Wind Speed 2 mph (WSW)    
Max Wind Speed 8 mph    
Max Gust Speed -    
Visibility 10 miles    
Events      
Averages and records for this station are not official NWS values.
T = Trace of Precipitation, MM = Missing Value Source: NWS Daily Summary

Daily Weather History Graph

Daily Weather History Graph

Search for Another Location

Airport or City:

Trip Planner

Search our weather history database for the weather conditions in past years. The results will help you decide how hot, cold, wet, or windy it might be!

Date:

Astronomy

May. 30, 2012 Rise Set
Actual Time 5:13 AM EDT 8:13 PM EDT
Civil Twilight 4:40 AM EDT 8:47 PM EDT
Nautical Twilight 3:58 AM EDT 9:29 PM EDT
Astronomical Twilight 3:08 AM EDT 10:19 PM EDT
Moon 2:44 PM EDT (5/30) 1:42 AM EDT (5/30)
Length of Visible Light 16h 06m
Length of Day
14h 59m
Waxing Gibbous, 70% of the Moon is Illuminated
May 30
Waxing Gibbous
Jun 4
Full
Jun 11
Last Quarter
Jun 19
New
Jun 26
First Quarter

Hourly Weather History & Observations

Time (EDT) Temp. Dew Point Humidity Pressure Visibility Wind Dir Wind Speed Gust Speed Precip Events Conditions
12:15 AM 66.2 °F 62.6 °F 88% 29.78 in 10.0 mi Calm Calm - N/A   Scattered Clouds
12:35 AM 60.8 °F 60.8 °F 100% 29.76 in 10.0 mi Calm Calm - N/A   Partly Cloudy
12:55 AM - - N/A% 29.76 in 10.0 mi Calm Calm - N/A   Clear
1:15 AM 68.0 °F 62.6 °F 83% 29.75 in 10.0 mi SW 3.5 mph - N/A   Clear
1:35 AM - - N/A% 29.74 in 10.0 mi South 3.5 mph - N/A   Clear
2:15 AM - - N/A% 29.73 in 10.0 mi Calm Calm - N/A   Clear
2:35 AM 64.4 °F 62.6 °F 94% 29.73 in 10.0 mi Calm Calm - N/A   Clear
2:55 AM - - N/A% 29.72 in 10.0 mi Calm Calm - N/A   Clear
3:15 AM - - N/A% 29.73 in 10.0 mi SW 3.5 mph - N/A   Clear
3:35 AM 62.6 °F 62.6 °F 100% 29.72 in 10.0 mi Calm Calm - N/A   Clear
3:55 AM 64.4 °F 62.6 °F 94% 29.72 in 10.0 mi Calm Calm - N/A   Partly Cloudy
4:15 AM - - N/A% 29.72 in 10.0 mi Calm Calm - N/A   Mostly Cloudy
4:55 AM 62.6 °F 62.6 °F 100% 29.73 in 10.0 mi WSW 4.6 mph - N/A   Mostly Cloudy
5:15 AM 66.2 °F 62.6 °F 88% 29.74 in 10.0 mi WSW 6.9 mph - N/A   Scattered Clouds
5:35 AM 64.4 °F 62.6 °F 94% 29.74 in 10.0 mi WSW 8.1 mph - N/A   Clear
5:55 AM 69.8 °F 62.6 °F 78% 29.75 in 10.0 mi West 6.9 mph - N/A   Clear
6:15 AM 68.0 °F 62.6 °F 83% 29.75 in 10.0 mi West 5.8 mph - N/A   Mostly Cloudy
6:35 AM 62.6 °F 62.6 °F 100% 29.76 in 10.0 mi West 8.1 mph - N/A   Mostly Cloudy
6:55 AM 64.4 °F 62.6 °F 94% 29.76 in 10.0 mi WSW 4.6 mph - N/A   Mostly Cloudy
7:15 AM 69.8 °F 62.6 °F 78% 29.76 in 10.0 mi West 5.8 mph - N/A   Mostly Cloudy
7:35 AM 66.2 °F 64.4 °F 94% 29.76 in 10.0 mi West 5.8 mph - N/A   Mostly Cloudy
7:55 AM 69.8 °F 62.6 °F 78% 29.76 in 10.0 mi West 6.9 mph - N/A   Mostly Cloudy
8:35 AM 71.6 °F 62.6 °F 73% 29.76 in 10.0 mi West 4.6 mph - N/A   Overcast
8:55 AM 69.8 °F 64.4 °F 83% 29.77 in 10.0 mi West 4.6 mph - N/A   Mostly Cloudy
9:15 AM 68.0 °F 64.4 °F 88% 29.77 in 10.0 mi Calm Calm - N/A   Mostly Cloudy
9:55 AM 68.0 °F 62.6 °F 83% 29.77 in 10.0 mi West 5.8 mph - N/A   Scattered Clouds
10:15 AM 73.4 °F 60.8 °F 65% 29.77 in 10.0 mi NW 5.8 mph - N/A   Mostly Cloudy
10:35 AM 69.8 °F 62.6 °F 78% 29.77 in 10.0 mi NNW 3.5 mph - N/A   Scattered Clouds
10:55 AM 73.4 °F 60.8 °F 65% 29.78 in 10.0 mi NW 5.8 mph - N/A   Mostly Cloudy
11:15 AM 71.6 °F 60.8 °F 69% 29.78 in 10.0 mi NW 4.6 mph - N/A   Overcast
11:35 AM 71.6 °F 60.8 °F 69% 29.78 in 10.0 mi WNW 4.6 mph - N/A   Overcast
12:15 PM 71.6 °F 60.8 °F 69% 29.78 in 10.0 mi Calm Calm - N/A   Overcast
12:35 PM 73.4 °F 64.4 °F 73% 29.79 in 10.0 mi Calm Calm - N/A   Overcast
12:55 PM 71.6 °F 60.8 °F 69% 29.77 in 10.0 mi Calm Calm - N/A   Mostly Cloudy
1:15 PM 73.4 °F 60.8 °F 65% 29.77 in 10.0 mi Calm Calm - N/A   Scattered Clouds
1:35 PM 73.4 °F 59.0 °F 61% 29.77 in 10.0 mi West 3.5 mph - N/A   Partly Cloudy
1:55 PM 73.4 °F 62.6 °F 69% 29.77 in 10.0 mi Calm Calm - N/A   Clear
2:15 PM 71.6 °F 60.8 °F 69% 29.77 in 10.0 mi Calm Calm - N/A   Partly Cloudy
2:55 PM 73.4 °F 60.8 °F 65% 29.76 in 10.0 mi Calm Calm - N/A   Partly Cloudy
4:15 PM - - N/A% 29.73 in 10.0 mi Calm Calm - N/A   Clear
4:35 PM 71.6 °F 62.6 °F 73% 29.73 in 10.0 mi Calm Calm - N/A   Clear
5:15 PM 71.6 °F 62.6 °F 73% 29.73 in 10.0 mi SSW 3.5 mph - N/A   Clear
5:35 PM 73.4 °F 62.6 °F 69% 29.73 in 10.0 mi Calm Calm - N/A   Clear
5:55 PM 71.6 °F 62.6 °F 73% 29.74 in 10.0 mi Calm Calm - N/A   Clear
6:15 PM 75.2 °F 62.6 °F 65% 29.74 in 10.0 mi Calm Calm - N/A   Clear
6:35 PM 69.8 °F 64.4 °F 83% 29.75 in 10.0 mi Calm Calm - N/A   Clear
6:55 PM - - N/A% 29.75 in 10.0 mi SSW 3.5 mph - N/A   Clear
7:15 PM - - N/A% 29.76 in 10.0 mi SSW 3.5 mph - N/A   Clear
7:55 PM 69.8 °F 64.4 °F 83% 29.77 in 10.0 mi SSW 3.5 mph - N/A   Clear
8:15 PM - - N/A% 29.77 in 10.0 mi SSW 3.5 mph - N/A   Clear
8:35 PM 71.6 °F 62.6 °F 73% 29.77 in 10.0 mi SSW 3.5 mph - N/A   Clear
8:55 PM 64.4 °F 62.6 °F 94% 29.77 in 10.0 mi Calm Calm - N/A   Clear
9:35 PM 60.8 °F 59.0 °F 94% 29.78 in 10.0 mi Calm Calm - N/A   Clear
9:55 PM 62.6 °F 60.8 °F 94% 29.77 in 10.0 mi Calm Calm - N/A   Clear
10:35 PM 60.8 °F 57.2 °F 88% 29.76 in 10.0 mi Calm Calm - N/A   Partly Cloudy
10:55 PM 60.8 °F 57.2 °F 88% 29.76 in 9.0 mi Calm Calm - N/A   Partly Cloudy
11:15 PM 57.2 °F 57.2 °F 100% 29.76 in 10.0 mi Calm Calm - N/A   Clear
11:35 PM 60.8 °F 57.2 °F 88% 29.76 in 10.0 mi Calm Calm - N/A   Clear
11:55 PM 57.2 °F 57.2 °F 100% 29.76 in 9.0 mi Calm Calm - N/A   Clear